Regional Weather Roundup
Issued by NWS Cleveland, OH

Home | Current Version | Previous Version | Graphics & Text | Print | Product List | Glossary On
Versions: 1 2 3 4 5 6 7 8 9 10 11 12 13 14 15 16 17 18 19 20 21 22 23 24 25 26 27 28 29 30 31 32 33 34 35 36 37 38 39 40 41 42 43 44 45 46 47 48 49 50
000
ASUS41 KCLE 230300
RWRCLE
OHIO REGIONAL WEATHER ROUNDUP
NATIONAL WEATHER SERVICE WILMINGTON, OH
1000 PM EST WED FEB 22 2017

NOTE: "FAIR" INDICATES FEW OR NO CLOUDS BELOW 12,000 FEET WITH NO
SIGNIFICANT WEATHER AND/OR OBSTRUCTIONS TO VISIBILITY.

OHZ001>008-015>018-024>027-034-035-043-044-230400-
   NORTHWEST OHIO

CITY           SKY/WX    TMP DP  RH WIND       PRES   REMARKS
DEFIANCE       FAIR      56  51  84 S10       29.73F
FINDLAY        CLOUDY    59  53  80 S9        29.76F
TOLEDO EXPRESS MOCLDY    57  55  93 S7        29.73F
TOLEDO EXEC    CLOUDY    59  55  87 S10       29.75F FOG
LIMA           CLOUDY    58  56  93 S10       29.78S
$$

OHZ009>014-019>023-028>033-038-089-230400-
   NORTHEAST OHIO

CITY           SKY/WX    TMP DP  RH WIND       PRES   REMARKS
CLE-HOPKINS    CLOUDY    59  52  77 S15       29.82F
CLE-LAKEFRONT  CLOUDY    60  52  74 S15G22    29.79S
CUY CO. ARPT   MOCLDY    59  54  82 S12       29.81S
LORAIN-ELYRIA  CLOUDY    57  51  80 S13       29.80F
ASHTABULA      CLOUDY    57  52  83 SW9       29.82S
AKRON-CANTON   CLOUDY    56  51  84 S8        29.84S
WOOSTER        NOT AVBL
MANSFIELD      CLOUDY    56  54  93 S9        29.82F
YOUNGSTOWN     MOCLDY    56  51  84 S7        29.84F
$$

OHZ042-051>053-060>062-070>072-077>081-230400-
  SOUTHWEST OHIO

CITY           SKY/WX    TMP DP  RH WIND       PRES   REMARKS
CINC-COVINGTON CLOUDY    62  56  80 S7        29.82S
CINC-LUNKEN    CLOUDY    57  57 100 SW3       29.83S
HAMILTON       FAIR      53  53 100 E3        29.82S FOG
DAYTON         NOT AVBL
WRIGHT-PAT AFB NOT AVBL
DAYTON GENERAL FAIR      58  55  90 SE9       29.80F
WILMINGTON     CLOUDY    57  56  96 S8        29.83F
$$

OHZ036-037-039>041-045>050-054>059-063>069-073>076-082>088-230400-
  CENTRAL AND SOUTHEAST OHIO

CITY           SKY/WX    TMP DP  RH WIND       PRES   REMARKS
COLUMBUS       CLOUDY    59  54  83 SE9       29.82F
OSU AIRPORT    CLOUDY    57  55  93 S8        29.82F
BOLTON FIELD   NOT AVBL
RICKENBACK AFB NOT AVBL
NEWARK         CLOUDY    57  53  86 SE7       29.84F
MARION         CLOUDY    56  54  93 S12       29.80F FOG
LANCASTER      CLOUDY    59  54  83 SE10      29.85F
ZANESVILLE     CLOUDY    55  53  93 S6        29.87S FOG
NEW PHILLY     CLOUDY    57  52  83 VRB5      29.86S
$$




USA.gov is the U.S. government's official web portal to all federal, state and local government web resources and services.